Temperature
19 18 18 18 18 18 18 18 18 18 18 18 18 18 18 18 18 18 18 18 18 18 17 18 18 18 18 18 17 17 17 17 17 17 17 17 17 17 17 17 17 17 17
18 18 18 18 18 18 18 17 17 17 17 17 17 18 18 18 18 18 18 18 18 18 18 18 18 18 18 18 18 17 17 17 17 17 17 17 17 17 17 16 16 16 16
18 18 18 18 18 18 17 17 17 17 17 17 17 17 17 17 17 17 17 18 18 18 18 18 17 17 18 18 18 18 17 17 17 17 17 17 17 17 17 17 16 16 16
18 18 18 18 17 17 17 17 17 17 17 17 17 17 17 17 17 17 17 17 17 17 18 18 17 17 18 18 18 17 17 17 17 17 17 17 17 17 17 17 16 16 16
17 18 18 18 17 17 17 17 17 17 17 17 17 17 17 17 17 17 17 17 17 17 17 17 17 17 17 17 17 17 17 17 17 17 17 17 17 17 17 17 17 16 16
17 17 18 17 17 17 17 17 17 17 17 17 17 17 17 17 17 17 17 17 17 17 17 17 17 17 17 17 17 18 18 17 17 17 17 17 17 17 17 17 17 17 16
17 17 18 18 18 18 17 17 17 17 17 17 17 17 17 17 17 17 17 17 17 17 17 17 17 17 17 17 17 17 17 17 17 17 17 17 17 17 17 17 17 17 17
17 17 18 18 18 18 17 17 17 17 17 16 16 17 17 16 16 16 16 16 16 16 16 17 17 17 17 17 17 17 17 17 17 17 17 17 17 17 17 17 17 17 17
17 17 17 18 18 18 17 17 17 17 16 16 16 16 16 16 16 16 16 16 16 16 16 16 17 17 17 17 17 17 17 17 17 17 17 17 17 17 17 17 17 17 17
17 17 17 17 17 17 17 17 17 16 16 16 16 16 15 15 15 15 16 16 16 16 16 16 16 17 17 17 17 17 17 17 17 17 17 17 17 17 17 17 17 17 17
16 16 16 16 16 16 16 16 16 16 16 16 16 15 15 15 14 14 15 16 16 16 16 16 16 16 16 17 17 17 17 17 17 17 17 16 16 16 16 17 17 17 17
15 15 15 16 16 16 16 16 15 15 15 16 15 15 15 15 14 14 14 14 15 16 16 16 16 16 16 16 16 17 17 17 16 16 16 16 16 16 16 16 16 17 17
14 14 14 15 15 15 15 15 15 15 15 15 15 15 15 15 14 14 13 13 13 14 15 15 15 15 16 16 16 16 16 16 16 16 16 16 16 16 16 16 16 16 16
13 13 13 13 13 14 14 14 14 14 14 14 14 14 14 14 14 14 13 13 13 13 14 15 15 15 15 15 16 16 16 16 16 16 16 16 16 16 16 16 16 16 16
12 12 12 12 12 12 13 13 13 14 14 14 14 14 14 14 14 14 13 13 12 12 13 14 14 14 14 15 15 15 15 16 16 16 16 16 16 16 16 16 16 16 16
11 11 11 11 11 11 11 12 12 12 13 13 13 13 13 14 14 13 13 13 13 12 12 13 13 13 14 14 14 14 15 15 15 15 15 15 15 15 15 15 15 16 16
10 10 10 10 10 10 11 11 11 11 11 12 12 13 13 13 13 13 13 13 13 12 12 13 13 13 13 13 13 14 14 14 14 14 15 15 15 15 15 15 15 15 15
10 10 10 10 10 10 10 10 10 10 11 11 11 12 12 12 12 13 13 13 13 13 12 12 13 13 13 13 13 13 13 13 13 13 14 14 14 14 14 14 15 15 15
10 10 10 10 9 9 9 9 9 10 10 10 10 11 11 11 12 12 12 13 13 12 12 12 13 12 12 12 12 12 12 12 12 13 13 13 13 13 14 14 14 14 14
10 10 10 9 9 9 9 9 9 9 9 9 10 10 10 11 11 12 12 12 12 12 12 12 12 12 12 12 12 12 12 12 12 12 12 12 13 13 13 13 13 13 13
10 10 10 9 9 9 9 9 9 9 9 9 9 10 10 10 11 11 11 12 12 12 12 12 12 12 12 12 12 12 12 11 11 11 12 12 12 12 12 12 12 13 13
10 10 9 9 9 9 9 9 9 9 9 9 9 9 9 10 10 11 11 11 11 12 12 12 12 12 12 12 12 12 12 11 11 10 11 11 11 11 12 12 12 12 12
9 9 9 9 9 9 9 9 8 8 8 8 8 9 9 9 10 10 10 11 11 11 11 12 12 12 12 12 12 12 12 11 12 11 11 11 10 11 11 11 11 11 11
9 9 9 9 9 9 9 8 8 8 8 8 8 8 9 9 9 9 10 10 11 11 11 11 12 12 12 12 12 12 12 11 11 10 11 10 10 10 10 10 10 10 10
8 8 8 8 8 8 8 8 8 8 8 8 8 8 8 9 9 9 9 10 10 11 11 11 12 12 12 12 12 12 11 11 10 10 10 10 10 9 9 9 9 9 9
7 7 7 8 8 8 8 8 8 8 8 8 8 8 8 8 9 9 9 9 10 11 11 11 11 11 12 12 12 12 12 11 11 9 10 10 9 9 8 8 8 9 9
Wind_Speed
7 7 6 7 7 7 6 5 5 5 6 7 8 9 9 11 11 11 11 15 15 15 15 15 14 14 15 16 19 21 22 23 24 24 24 24 24 23 23 22 22 21 21
7 7 6 5 5 6 6 5 4 4 4 4 6 6 7 9 9 10 11 12 14 14 15 15 14 14 14 15 18 19 20 22 24 25 25 25 25 25 25 24 24 24 23
10 7 6 5 4 5 4 3 2 2 2 3 4 5 5 7 8 9 10 10 11 12 14 15 15 15 14 16 18 19 20 21 22 24 25 26 26 26 26 26 26 26 26
12 6 6 5 4 3 2 2 2 2 2 3 3 4 4 5 7 8 8 9 10 10 12 15 16 16 16 17 17 18 19 19 20 23 25 26 26 27 27 27 27 27 27
10 6 5 4 4 3 2 2 2 2 2 3 4 4 4 5 6 6 7 8 9 10 11 13 16 16 17 17 17 17 17 17 18 20 23 25 25 26 26 27 28 28 28
7 5 4 5 5 4 3 2 2 2 2 2 3 3 3 4 4 5 6 5 7 9 10 11 11 13 15 17 18 18 19 18 18 18 20 23 24 24 25 26 27 28 28
6 5 5 5 5 4 4 4 2 2 1 0 0 2 3 2 2 2 3 3 4 5 6 8 9 10 10 13 16 18 20 20 18 18 19 20 21 22 23 24 26 27 28
5 5 6 6 5 4 4 4 3 2 1 1 1 0 2 3 2 1 2 1 2 3 4 6 7 8 10 10 12 15 18 20 20 21 21 20 20 21 21 22 24 26 26
4 3 5 5 5 5 5 5 4 4 2 1 1 2 2 2 2 3 2 2 2 2 3 4 5 7 8 9 10 13 16 18 20 20 20 19 19 20 19 19 21 23 24
1 2 3 4 5 4 5 5 5 3 4 2 1 2 2 2 1 2 3 3 3 4 5 5 5 6 7 8 10 13 15 16 17 19 19 17 17 17 18 18 18 19 21
3 3 2 2 3 4 5 5 5 5 4 4 3 2 1 1 2 2 4 4 4 4 4 6 5 5 6 7 8 10 13 14 14 15 15 16 15 14 14 14 15 17 19
3 4 3 2 2 2 4 5 5 6 6 5 4 3 3 3 3 4 4 4 5 4 5 5 4 4 4 5 6 8 10 11 11 11 12 13 13 13 12 12 13 14 16
2 4 4 3 2 2 2 3 5 6 6 6 6 5 5 5 3 3 3 4 4 3 3 2 2 3 3 3 3 5 6 8 9 9 9 9 9 9 8 9 10 11 13
2 2 2 3 3 3 2 2 4 5 5 6 7 6 5 6 5 5 4 3 3 3 3 3 2 2 2 3 3 1 1 4 6 7 7 6 6 6 5 5 7 8 10
3 2 2 3 3 3 2 2 3 4 4 6 7 7 6 6 6 6 5 4 4 3 3 3 1 1 1 2 3 3 3 5 7 7 7 7 6 5 5 3 3 4 6
4 4 4 4 3 3 3 2 3 3 4 5 5 6 7 6 6 6 6 6 6 5 4 2 2 1 1 2 4 5 6 9 9 10 10 10 9 8 7 5 4 2 2
6 6 5 5 5 4 4 3 4 4 5 5 5 6 7 7 6 6 6 6 7 6 8 5 2 1 1 3 3 5 7 7 8 12 13 12 12 11 10 9 7 6 5
8 7 7 6 6 6 5 5 5 5 5 6 6 6 7 6 7 6 6 7 7 8 7 7 4 3 2 4 5 6 5 7 8 12 14 14 14 13 13 12 11 11 10
9 8 7 8 8 7 7 7 6 6 6 6 6 6 6 6 7 6 7 7 7 7 7 7 5 3 2 4 5 6 7 6 8 11 14 15 15 15 15 14 14 14 15
10 10 10 9 9 9 8 8 7 7 7 6 6 6 7 7 8 8 8 9 8 8 7 7 6 4 3 5 6 6 6 5 6 7 10 12 15 16 16 15 15 16 17
11 11 10 10 9 8 8 9 8 8 7 7 7 6 7 9 10 9 8 8 8 8 8 8 7 6 5 7 7 5 7 7 5 4 6 6 7 8 10 12 14 15 17
11 10 10 11 10 9 12 14 10 8 8 8 8 7 7 9 9 10 12 13 12 10 10 9 8 8 9 8 7 10 9 8 4 4 5 6 6 7 7 9 12 15 17
11 10 11 11 11 12 15 15 14 9 9 9 9 8 7 7 8 7 9 11 13 15 15 11 11 10 11 12 13 13 11 8 5 8 7 6 5 7 6 9 13 15 17
9 10 11 11 11 13 15 16 15 10 9 9 9 9 9 9 8 8 7 8 9 11 13 13 12 11 10 12 14 13 12 10 9 5 4 5 4 5 6 9 12 15 16
10 9 8 10 11 12 14 15 13 7 8 10 9 9 9 9 10 10 8 8 9 8 9 12 12 11 12 15 15 13 13 13 9 5 2 5 5 5 5 6 9 13 15
10 10 10 10 11 11 13 14 13 6 7 8 7 8 10 10 9 9 9 9 10 8 7 7 8 10 12 16 19 17 16 16 12 6 4 5 7 5 5 3 4 8 11
Wind_Direction
234 231 234 237 239 239 237 234 228 230 232 234 237 239 239 239 241 240 244 248 248 248 246 241 236 235 234 232 229 226 225 222 218 215 215 216 216 214 213 213 213 211 210
235 233 231 230 232 230 229 225 220 223 231 233 239 240 243 245 244 245 247 254 256 251 246 240 238 239 235 234 233 228 227 225 221 218 217 217 217 217 216 216 216 215 214
238 228 228 225 224 223 217 219 225 218 229 235 246 250 249 247 246 246 247 249 253 252 246 237 238 239 238 232 231 227 227 227 225 222 220 219 218 218 219 218 218 217 217
237 217 212 216 208 197 188 193 203 203 224 233 248 255 250 249 250 250 249 250 249 248 244 240 239 237 237 236 233 231 228 229 229 227 224 223 221 220 220 219 220 220 219
231 208 200 201 184 171 181 196 189 193 209 233 249 253 253 254 257 260 254 251 247 245 244 244 243 241 237 237 235 235 237 235 232 232 231 227 225 222 221 221 221 221 220
223 199 193 191 176 169 175 181 184 188 207 235 264 272 274 274 268 258 257 256 252 250 247 246 246 247 243 240 235 234 237 238 234 233 236 234 229 225 223 222 222 222 221
210 194 193 190 185 180 181 181 167 165 195 191 339 322 319 303 285 260 267 260 262 261 257 252 247 244 245 243 240 234 233 235 234 234 237 237 233 227 225 225 223 223 222
213 207 197 194 186 175 171 175 159 154 178 156 143 61 341 343 345 348 324 285 285 284 279 273 260 251 248 245 242 239 237 236 235 234 233 237 235 232 228 228 227 224 223
224 213 207 200 187 176 184 187 171 165 177 197 185 163 166 242 308 321 328 329 323 303 295 291 276 264 254 246 243 241 238 235 233 233 233 232 229 228 227 230 230 227 225
301 262 225 208 200 192 191 192 180 172 165 187 203 213 204 179 202 311 313 314 315 298 296 296 288 276 261 249 242 239 236 235 233 233 231 229 226 225 226 229 232 231 229
9 4 329 250 218 210 206 200 185 184 181 182 186 185 199 217 212 229 280 307 317 296 291 291 287 280 270 253 244 239 234 234 232 229 226 224 222 222 223 229 234 236 234
3 7 352 326 263 228 221 216 208 199 198 195 197 195 192 198 201 210 247 284 300 298 299 293 287 287 283 264 249 241 231 225 224 226 225 220 219 223 226 231 238 241 240
338 343 346 331 310 276 245 224 220 218 206 205 208 210 212 219 209 202 231 264 281 295 301 301 293 308 309 303 282 260 235 215 209 208 206 204 208 212 217 225 234 244 247
277 295 317 322 320 309 290 246 232 230 219 218 220 216 216 222 214 212 210 227 273 277 276 281 310 337 352 4 14 17 168 172 170 169 167 166 173 179 190 208 227 239 247
265 277 297 308 304 307 303 284 255 250 234 228 229 227 225 226 217 218 215 214 227 261 275 269 272 3 27 32 42 59 88 112 126 131 129 127 128 134 146 163 200 228 242
248 264 273 277 286 290 287 282 271 268 259 247 233 230 232 229 220 217 217 217 220 232 251 253 247 275 24 62 71 81 91 97 99 106 107 109 109 107 108 111 121 136 177
242 244 248 254 259 264 263 261 264 262 256 262 259 242 239 231 225 221 216 217 221 225 246 254 241 224 173 134 103 93 92 88 91 95 96 94 93 92 90 87 85 86 88
240 238 237 242 248 248 240 240 252 251 248 253 253 250 249 241 231 225 219 221 223 221 231 248 240 214 192 159 133 115 102 96 94 93 92 88 86 84 82 79 77 78 77
240 240 233 236 242 243 241 236 237 246 245 248 245 242 247 244 242 234 226 226 225 224 223 233 233 210 181 155 137 120 111 104 98 94 86 82 81 80 79 79 78 77 78
236 238 235 234 236 239 240 240 237 240 244 245 243 239 240 238 242 240 234 229 223 222 222 225 223 207 183 160 150 141 130 114 104 92 85 83 80 76 75 77 80 81 82
239 235 235 237 236 233 236 233 233 237 237 244 249 248 247 247 244 239 234 227 218 218 218 219 216 203 186 172 166 153 142 126 97 103 100 83 80 75 70 71 77 84 86
242 234 232 235 236 236 230 225 221 228 234 242 251 257 259 257 257 250 238 228 218 216 216 216 215 207 194 176 161 156 149 144 134 138 112 90 81 79 70 76 84 89 90
242 236 235 233 235 236 234 233 231 226 231 237 242 249 259 256 249 254 249 236 226 223 219 216 216 209 193 177 167 166 166 154 138 148 126 100 86 80 72 78 90 94 95
243 240 238 234 233 238 235 234 236 231 231 236 238 239 243 254 253 245 250 246 238 231 223 222 224 215 196 180 174 165 152 124 110 122 118 110 105 90 79 75 86 99 102
246 241 238 232 230 238 236 235 233 226 232 240 241 236 235 246 250 240 239 244 244 239 228 219 216 208 186 169 159 149 147 143 139 138 113 115 128 109 86 76 79 95 104
247 245 242 234 229 235 236 232 226 218 231 241 242 238 234 237 245 239 234 234 236 233 211 201 199 192 181 168 164 165 161 156 148 145 156 131 146 135 108 82 85 99 102
Height
1526 1527 1527 1527 1528 1528 1528 1529 1529 1529 1530 1530 1531 1531 1532 1532 1533 1534 1535 1536 1537 1538 1539 1541 1542 1544 1546 1548 1549 1551 1553 1555 1557 1560 1562 1565 1567 1569 1572 1574 1576 1578 1580
1524 1524 1524 1524 1524 1524 1525 1525 1525 1526 1526 1526 1527 1527 1528 1528 1529 1529 1530 1532 1533 1534 1535 1537 1538 1540 1542 1543 1545 1547 1549 1551 1553 1555 1558 1561 1563 1566 1568 1570 1573 1575 1577
1520 1521 1521 1521 1521 1521 1521 1521 1521 1522 1522 1522 1522 1523 1523 1524 1524 1525 1526 1527 1528 1529 1531 1532 1534 1535 1537 1538 1540 1542 1544 1547 1549 1551 1554 1556 1559 1562 1564 1567 1569 1571 1574
1516 1518 1517 1517 1517 1517 1517 1517 1518 1518 1518 1518 1518 1518 1518 1519 1520 1520 1521 1522 1523 1524 1526 1527 1529 1530 1532 1533 1535 1537 1539 1542 1544 1546 1549 1552 1554 1557 1560 1562 1565 1568 1570
1512 1514 1513 1513 1513 1513 1513 1513 1514 1514 1514 1514 1514 1514 1514 1514 1515 1515 1516 1517 1518 1519 1520 1522 1523 1525 1526 1528 1530 1532 1534 1537 1539 1541 1544 1547 1550 1552 1555 1558 1560 1563 1566
1509 1510 1510 1509 1509 1509 1509 1510 1510 1510 1511 1511 1511 1510 1509 1509 1510 1510 1511 1512 1513 1514 1515 1516 1517 1519 1521 1523 1525 1526 1529 1531 1534 1536 1539 1542 1544 1547 1549 1552 1555 1558 1561
1505 1506 1506 1507 1506 1506 1506 1506 1507 1507 1508 1508 1508 1507 1506 1505 1505 1506 1507 1508 1509 1510 1510 1511 1512 1513 1515 1517 1519 1521 1523 1525 1528 1531 1533 1536 1539 1541 1544 1546 1549 1552 1555
1501 1502 1503 1503 1503 1503 1503 1503 1504 1505 1505 1505 1505 1504 1503 1504 1503 1504 1504 1505 1505 1506 1507 1507 1508 1509 1510 1511 1513 1515 1517 1519 1522 1525 1527 1530 1533 1535 1538 1541 1543 1546 1549
1498 1499 1500 1501 1501 1501 1501 1501 1502 1502 1502 1503 1503 1503 1502 1501 1501 1502 1502 1502 1502 1503 1503 1503 1504 1504 1505 1506 1508 1509 1511 1514 1516 1518 1521 1524 1526 1529 1531 1534 1537 1540 1543
1494 1495 1497 1497 1498 1498 1498 1499 1499 1500 1500 1500 1500 1500 1501 1500 1500 1499 1500 1500 1500 1499 1500 1500 1500 1500 1501 1502 1503 1505 1506 1508 1510 1512 1515 1517 1520 1522 1524 1527 1531 1533 1536
1490 1491 1492 1493 1493 1494 1494 1495 1495 1496 1497 1497 1497 1497 1497 1497 1497 1497 1496 1496 1496 1496 1496 1496 1496 1496 1497 1498 1499 1500 1502 1503 1505 1507 1509 1511 1514 1516 1518 1520 1524 1527 1530
1486 1486 1487 1488 1488 1489 1489 1490 1492 1492 1493 1494 1494 1494 1494 1494 1494 1494 1494 1493 1492 1493 1493 1492 1492 1493 1493 1494 1495 1496 1497 1499 1500 1502 1504 1506 1508 1510 1512 1514 1517 1520 1523
1481 1481 1481 1482 1482 1483 1484 1485 1487 1488 1489 1489 1490 1490 1490 1491 1491 1491 1491 1491 1490 1489 1489 1489 1489 1489 1490 1490 1491 1492 1493 1495 1496 1498 1499 1501 1503 1505 1507 1509 1511 1513 1516
1476 1475 1475 1475 1476 1477 1477 1478 1480 1482 1483 1484 1485 1486 1486 1487 1487 1488 1488 1488 1488 1487 1486 1486 1486 1487 1487 1487 1488 1489 1490 1491 1492 1494 1495 1497 1498 1500 1502 1504 1506 1507 1510
1471 1470 1470 1469 1470 1470 1471 1472 1473 1475 1476 1478 1479 1480 1481 1482 1483 1483 1484 1485 1486 1485 1484 1483 1484 1484 1484 1484 1485 1485 1487 1488 1489 1490 1492 1493 1494 1496 1498 1499 1501 1503 1505
1467 1466 1465 1464 1464 1464 1465 1465 1466 1467 1469 1471 1472 1473 1475 1477 1478 1479 1480 1481 1481 1482 1481 1481 1481 1482 1482 1482 1482 1483 1484 1485 1486 1487 1489 1490 1491 1492 1494 1495 1497 1498 1500
1463 1461 1461 1460 1459 1459 1459 1459 1460 1461 1462 1464 1465 1467 1468 1470 1472 1473 1475 1475 1476 1477 1477 1477 1478 1479 1479 1480 1480 1481 1482 1483 1484 1485 1486 1488 1489 1490 1491 1492 1493 1495 1496
1458 1457 1456 1455 1454 1454 1453 1453 1454 1454 1456 1457 1458 1460 1461 1463 1465 1467 1469 1470 1471 1472 1473 1473 1474 1475 1476 1477 1478 1479 1480 1481 1482 1483 1485 1486 1487 1489 1490 1490 1491 1492 1493
1451 1451 1450 1449 1449 1449 1448 1448 1448 1448 1449 1450 1452 1453 1455 1456 1458 1460 1462 1464 1466 1467 1467 1468 1469 1471 1473 1474 1475 1477 1479 1480 1481 1483 1484 1485 1487 1488 1489 1490 1490 1491 1492
1443 1443 1443 1443 1443 1442 1443 1443 1443 1443 1443 1444 1445 1447 1448 1449 1451 1453 1455 1457 1459 1461 1462 1463 1464 1466 1468 1470 1472 1474 1477 1479 1480 1482 1483 1485 1486 1488 1489 1490 1490 1491 1492
1434 1435 1435 1435 1436 1436 1436 1437 1437 1437 1438 1438 1439 1440 1441 1443 1444 1446 1448 1451 1453 1454 1455 1457 1459 1461 1463 1466 1468 1471 1474 1476 1479 1481 1483 1484 1486 1488 1489 1490 1491 1492 1493
1425 1426 1426 1427 1428 1428 1429 1430 1431 1431 1432 1432 1433 1433 1435 1436 1438 1439 1441 1443 1446 1447 1449 1451 1453 1455 1457 1461 1464 1467 1471 1474 1477 1480 1482 1484 1486 1488 1489 1491 1492 1493 1494
1416 1416 1417 1418 1419 1421 1422 1423 1424 1425 1425 1426 1426 1427 1428 1429 1431 1432 1434 1436 1438 1440 1442 1444 1446 1448 1452 1455 1459 1463 1467 1471 1473 1477 1481 1483 1486 1488 1490 1492 1493 1494 1496
1407 1407 1408 1410 1411 1412 1414 1416 1417 1417 1418 1418 1419 1420 1421 1422 1424 1426 1427 1428 1430 1432 1435 1437 1440 1443 1447 1451 1455 1459 1463 1468 1473 1476 1480 1482 1486 1488 1491 1492 1494 1496 1497
1397 1398 1399 1401 1402 1404 1406 1408 1409 1410 1410 1411 1413 1414 1415 1416 1417 1419 1420 1421 1423 1425 1428 1431 1434 1437 1441 1446 1450 1454 1459 1463 1469 1474 1478 1481 1484 1488 1491 1493 1495 1497 1499
1387 1389 1390 1392 1394 1396 1398 1400 1402 1403 1403 1405 1406 1407 1408 1409 1410 1411 1413 1414 1416 1418 1422 1425 1428 1431 1435 1440 1444 1449 1454 1459 1464 1471 1475 1479 1483 1487 1491 1494 1496 1498 1500